| time (UTC) | temp C | wind direction | speed KPH | gust KPH | rain 1hr cm | rain 24hr cm | rain mn cm | humidity % | barometer mb |
| 20260509135120 | 11 | 178 | 8.0 | 14.5 | 0.00 | 0.00 | 0.00 | 87 | 1009.9 |
| 20260509134654 | 11 | 187 | 9.7 | 14.5 | 0.00 | 0.00 | 0.00 | 87 | 1009.9 |
| 20260509134121 | 11 | 197 | 8.0 | 12.9 | 0.00 | 0.00 | 0.00 | 87 | 1009.9 |
| 20260509133635 | 11 | 176 | 8.0 | 12.9 | 0.00 | 0.00 | 0.00 | 87 | 1009.9 |
| 20260509133123 | 11 | 176 | 8.0 | 11.3 | 0.00 | 0.00 | 0.00 | 87 | 1010.0 |
| 20260509132639 | 11 | 191 | 8.0 | 11.3 | 0.00 | 0.00 | 0.00 | 87 | 1009.9 |
| 20260509132126 | 11 | 191 | 4.8 | 11.3 | 0.00 | 0.00 | 0.00 | 87 | 1010.0 |
| 20260509131620 | 11 | 183 | 6.4 | 9.7 | 0.00 | 0.00 | 0.00 | 87 | 1010.0 |
| 20260509131136 | 11 | 214 | 4.8 | 9.7 | 0.00 | 0.00 | 0.00 | 87 | 1010.0 |
| 20260509130622 | 10 | 205 | 6.4 | 11.3 | 0.00 | 0.00 | 0.00 | 87 | 1010.1 |
| 20260509130117 | 10 | 205 | 3.2 | 11.3 | 0.00 | 0.00 | 0.00 | 87 | 1010.1 |
| 20260509125629 | 10 | 212 | 6.4 | 11.3 | 0.00 | 0.00 | 0.00 | 87 | 1010.1 |
| 20260509125123 | 10 | 210 | 3.2 | 11.3 | 0.00 | 0.00 | 0.00 | 87 | 1010.1 |
| 20260509124617 | 10 | 197 | 6.4 | 14.5 | 0.00 | 0.00 | 0.00 | 87 | 1010.1 |
| 20260509124133 | 10 | 208 | 4.8 | 14.5 | 0.00 | 0.00 | 0.00 | 87 | 1010.0 |
| 20260509123626 | 10 | 197 | 6.4 | 9.7 | 0.00 | 0.00 | 0.00 | 87 | 1010.1 |
| 20260509123139 | 9 | 211 | 3.2 | 9.7 | 0.00 | 0.00 | 0.00 | 87 | 1010.1 |
| 20260509122635 | 9 | 206 | 1.6 | 9.7 | 0.00 | 0.00 | 0.00 | 87 | 1010.1 |
| 20260509122120 | 9 | 200 | 4.8 | 14.5 | 0.00 | 0.00 | 0.00 | 87 | 1010.1 |
| 20260509121635 | 9 | 180 | 9.7 | 16.1 | 0.00 | 0.00 | 0.00 | 87 | 1010.2 |
| 20260509121124 | 9 | 195 | 6.4 | 14.5 | 0.00 | 0.00 | 0.00 | 87 | 1010.2 |
| 20260509120658 | 9 | 205 | 6.4 | 12.9 | 0.00 | 0.00 | 0.00 | 87 | 1010.3 |
| 20260509120124 | 9 | 211 | 4.8 | 11.3 | 0.00 | 0.00 | 0.00 | 87 | 1010.5 |
| 20260509115639 | 9 | 176 | 6.4 | 12.9 | 0.00 | 0.00 | 0.00 | 87 | 1010.4 |
| 20260509115126 | 9 | 226 | 4.8 | 11.3 | 0.00 | 0.00 | 0.00 | 87 | 1010.4 |
| 20260509114621 | 9 | 203 | 4.8 | 11.3 | 0.00 | 0.00 | 0.00 | 87 | 1010.3 |
| 20260509114139 | 8 | 198 | 4.8 | 11.3 | 0.00 | 0.00 | 0.00 | 87 | 1010.2 |
| 20260509113647 | 8 | 199 | 4.8 | 11.3 | 0.00 | 0.00 | 0.00 | 87 | 1010.2 |
| 20260509113120 | 8 | 191 | 6.4 | 12.9 | 0.00 | 0.00 | 0.00 | 87 | 1010.2 |
| 20260509112635 | 8 | 198 | 4.8 | 12.9 | 0.00 | 0.00 | 0.00 | 87 | 1010.2 |
| 20260509112122 | 8 | 204 | 3.2 | 6.4 | 0.00 | 0.00 | 0.00 | 87 | 1010.1 |
| 20260509111636 | 8 | 205 | 1.6 | 8.0 | 0.00 | 0.00 | 0.00 | 87 | 1010.1 |
| 20260509111125 | 8 | 204 | 3.2 | 8.0 | 0.00 | 0.00 | 0.00 | 87 | 1010.1 |
| 20260509110638 | 8 | 202 | 3.2 | 11.3 | 0.00 | 0.00 | 0.00 | 87 | 1010.1 |
| 20260509110124 | 8 | 214 | 6.4 | 14.5 | 0.00 | 0.00 | 0.00 | 87 | 1010.4 |
| 20260509105618 | 8 | 203 | 8.0 | 14.5 | 0.00 | 0.00 | 0.00 | 87 | 1010.3 |
| 20260509105128 | 8 | 220 | 3.2 | 8.0 | 0.00 | 0.00 | 0.00 | 87 | 1010.4 |
| 20260509104641 | 8 | 228 | 3.2 | 8.0 | 0.00 | 0.00 | 0.00 | 87 | 1010.4 |
| 20260509104118 | 8 | 223 | 1.6 | 8.0 | 0.00 | 0.00 | 0.00 | 87 | 1010.4 |
| 20260509103632 | 8 | 223 | 3.2 | 9.7 | 0.00 | 0.00 | 0.00 | 87 | 1010.5 |
| 20260509103126 | 8 | 226 | 3.2 | 9.7 | 0.00 | 0.00 | 0.00 | 87 | 1010.5 |
| 20260509102620 | 8 | 189 | 3.2 | 6.4 | 0.00 | 0.00 | 0.00 | 87 | 1010.5 |
| 20260509102134 | 8 | 200 | 1.6 | 6.4 | 0.00 | 0.00 | 0.00 | 87 | 1010.4 |
| 20260509101621 | 8 | 228 | 0.0 | 0.0 | 0.00 | 0.00 | 0.00 | 87 | 1010.5 |
| 20260509101136 | 8 | 228 | 0.0 | 0.0 | 0.00 | 0.00 | 0.00 | 87 | 1010.5 |
| 20260509100623 | 8 | 234 | 0.0 | 0.0 | 0.00 | 0.00 | 0.00 | 87 | 1010.4 |
| 20260509100118 | 8 | 234 | 0.0 | 0.0 | 0.00 | 0.00 | 0.00 | 87 | 1010.3 |
| 20260509095635 | 8 | 234 | 0.0 | 4.8 | 0.00 | 0.00 | 0.00 | 87 | 1010.3 |
| 20260509095120 | 8 | 238 | 0.0 | 0.0 | 0.00 | 0.00 | 0.00 | 86 | 1010.3 |
| 20260509094633 | 8 | 239 | 0.0 | 0.0 | 0.00 | 0.00 | 0.00 | 86 | 1010.3 |
| 20260509094120 | 8 | 239 | 0.0 | 0.0 | 0.00 | 0.00 | 0.00 | 86 | 1010.2 |
| 20260509093634 | 8 | 239 | 0.0 | 0.0 | 0.00 | 0.00 | 0.00 | 86 | 1010.2 |
| 20260509093120 | 8 | 276 | 0.0 | 9.7 | 0.00 | 0.00 | 0.00 | 86 | 1010.2 |
| 20260509092637 | 8 | 276 | 0.0 | 9.7 | 0.00 | 0.00 | 0.00 | 86 | 1010.0 |
| 20260509092144 | 8 | 145 | 3.2 | 11.3 | 0.00 | 0.00 | 0.00 | 86 | 1010.3 |
| 20260509091637 | 8 | 243 | 1.6 | 11.3 | 0.00 | 0.00 | 0.00 | 86 | 1010.3 |
| 20260509091126 | 8 | 249 | 6.4 | 12.9 | 0.00 | 0.00 | 0.00 | 86 | 1010.2 |
| 20260509090619 | 8 | 230 | 1.6 | 9.7 | 0.00 | 0.00 | 0.00 | 86 | 1010.1 |
| 20260509090134 | 8 | 216 | 1.6 | 8.0 | 0.00 | 0.00 | 0.00 | 86 | 1010.2 |
| 20260509085624 | 8 | 216 | 0.0 | 11.3 | 0.00 | 0.00 | 0.00 | 86 | 1010.1 |
| 20260509085154 | 8 | 193 | 4.8 | 11.3 | 0.00 | 0.00 | 0.00 | 86 | 1010.0 |
| 20260509084619 | 8 | 223 | 3.2 | 11.3 | 0.00 | 0.00 | 0.00 | 86 | 1010.0 |
| 20260509084133 | 8 | 225 | 3.2 | 11.3 | 0.00 | 0.00 | 0.00 | 86 | 1010.0 |
| 20260509083627 | 8 | 243 | 1.6 | 12.9 | 0.00 | 0.00 | 0.00 | 87 | 1010.0 |
| 20260509083122 | 8 | 243 | 6.4 | 12.9 | 0.00 | 0.00 | 0.00 | 87 | 1010.0 |
| 20260509082618 | 8 | 179 | 1.6 | 9.7 | 0.00 | 0.00 | 0.00 | 87 | 1009.9 |
| 20260509082133 | 8 | 147 | 0.0 | 0.0 | 0.00 | 0.00 | 0.00 | 87 | 1010.0 |
| 20260509081619 | 8 | 137 | 0.0 | 0.0 | 0.00 | 0.00 | 0.00 | 87 | 1009.9 |
| 20260509081134 | 8 | 137 | 0.0 | 0.0 | 0.00 | 0.00 | 0.00 | 87 | 1010.1 |
| 20260509080621 | 8 | 137 | 0.0 | 0.0 | 0.00 | 0.00 | 0.00 | 87 | 1009.9 |
| 20260509080135 | 8 | 137 | 0.0 | 0.0 | 0.00 | 0.00 | 0.00 | 87 | 1009.9 |
| 20260509075623 | 8 | 60 | 0.0 | 0.0 | 0.00 | 0.00 | 0.00 | 87 | 1009.9 |
| 20260509075137 | 8 | 60 | 0.0 | 0.0 | 0.00 | 0.00 | 0.00 | 86 | 1009.8 |
| 20260509074623 | 8 | 60 | 0.0 | 0.0 | 0.00 | 0.00 | 0.00 | 86 | 1009.8 |
| 20260509074137 | 8 | 60 | 0.0 | 0.0 | 0.00 | 0.00 | 0.00 | 86 | 1009.8 |
| 20260509073623 | 8 | 58 | 0.0 | 0.0 | 0.00 | 0.00 | 0.00 | 86 | 1009.8 |
| 20260509073138 | 8 | 58 | 0.0 | 0.0 | 0.00 | 0.00 | 0.00 | 86 | 1009.7 |
| 20260509072627 | 8 | 58 | 0.0 | 0.0 | 0.00 | 0.00 | 0.00 | 86 | 1009.7 |
| 20260509072159 | 8 | 58 | 0.0 | 0.0 | 0.00 | 0.00 | 0.00 | 86 | 1009.8 |
| 20260509071644 | 8 | 58 | 0.0 | 0.0 | 0.00 | 0.00 | 0.00 | 86 | 1009.8 |
| 20260509071139 | 8 | 58 | 0.0 | 0.0 | 0.00 | 0.00 | 0.00 | 86 | 1009.8 |
| 20260509070625 | 8 | 58 | 0.0 | 0.0 | 0.00 | 0.00 | 0.00 | 86 | 1009.8 |
| 20260509070119 | 8 | 58 | 0.0 | 0.0 | 0.00 | 0.00 | 0.00 | 85 | 1009.9 |
| 20260509065636 | 9 | 58 | 0.0 | 0.0 | 0.00 | 0.00 | 0.00 | 85 | 1009.9 |
| 20260509065121 | 9 | 58 | 0.0 | 0.0 | 0.00 | 0.00 | 0.00 | 85 | 1010.0 |
| 20260509064617 | 9 | 58 | 0.0 | 0.0 | 0.00 | 0.00 | 0.00 | 85 | 1010.2 |
| 20260509064128 | 9 | 58 | 0.0 | 0.0 | 0.00 | 0.00 | 0.00 | 85 | 1010.3 |
| 20260509063643 | 9 | 58 | 0.0 | 0.0 | 0.00 | 0.00 | 0.00 | 85 | 1010.4 |
| 20260509063128 | 9 | 58 | 0.0 | 0.0 | 0.00 | 0.00 | 0.00 | 85 | 1010.4 |
| 20260509062623 | 9 | 58 | 0.0 | 0.0 | 0.00 | 0.00 | 0.00 | 85 | 1010.6 |
| 20260509062157 | 9 | 58 | 0.0 | 0.0 | 0.00 | 0.00 | 0.00 | 85 | 1010.7 |
| 20260509061623 | 9 | 58 | 0.0 | 0.0 | 0.00 | 0.00 | 0.00 | 85 | 1010.6 |
| 20260509061119 | 9 | 58 | 0.0 | 0.0 | 0.00 | 0.00 | 0.00 | 84 | 1010.8 |
| 20260509060633 | 9 | 58 | 0.0 | 0.0 | 0.00 | 0.00 | 0.00 | 84 | 1010.8 |
| 20260509060140 | 9 | 58 | 0.0 | 0.0 | 0.00 | 0.00 | 0.00 | 84 | 1010.8 |
| 20260509055637 | 9 | 58 | 0.0 | 0.0 | 0.00 | 0.00 | 0.00 | 84 | 1010.9 |
| 20260509055144 | 9 | 58 | 0.0 | 0.0 | 0.00 | 0.00 | 0.00 | 84 | 1011.0 |
| 20260509054636 | 10 | 58 | 0.0 | 0.0 | 0.00 | 0.00 | 0.00 | 84 | 1011.0 |
| 20260509054124 | 10 | 58 | 0.0 | 0.0 | 0.00 | 0.00 | 0.00 | 84 | 1011.1 |
| 20260509053638 | 10 | 58 | 0.0 | 0.0 | 0.00 | 0.00 | 0.00 | 84 | 1011.1 |
| 20260509053145 | 10 | 59 | 0.0 | 0.0 | 0.00 | 0.00 | 0.00 | 84 | 1011.2 |
| 20260509052622 | 10 | 58 | 0.0 | 0.0 | 0.00 | 0.00 | 0.00 | 84 | 1011.2 |
| 20260509052136 | 10 | 59 | 0.0 | 0.0 | 0.00 | 0.00 | 0.00 | 84 | 1011.2 |
| 20260509051643 | 10 | 59 | 0.0 | 0.0 | 0.00 | 0.00 | 0.00 | 83 | 1011.2 |
| 20260509051155 | 10 | 58 | 0.0 | 0.0 | 0.00 | 0.00 | 0.00 | 83 | 1011.2 |
| 20260509050620 | 10 | 58 | 0.0 | 0.0 | 0.00 | 0.00 | 0.00 | 83 | 1011.4 |
| 20260509050155 | 10 | 59 | 0.0 | 0.0 | 0.00 | 0.00 | 0.00 | 83 | 1011.4 |
| 20260509045642 | 10 | 59 | 0.0 | 0.0 | 0.00 | 0.00 | 0.00 | 83 | 1011.6 |
| 20260509045134 | 10 | 59 | 0.0 | 4.8 | 0.00 | 0.00 | 0.00 | 83 | 1011.6 |
| 20260509044623 | 10 | 59 | 0.0 | 4.8 | 0.00 | 0.00 | 0.00 | 83 | 1011.5 |
| 20260509044139 | 10 | 60 | 0.0 | 3.2 | 0.00 | 0.00 | 0.00 | 84 | 1011.5 |
| 20260509043625 | 10 | 60 | 0.0 | 6.4 | 0.00 | 0.00 | 0.00 | 84 | 1011.7 |
| 20260509043119 | 9 | 62 | 1.6 | 6.4 | 0.00 | 0.00 | 0.00 | 84 | 1011.7 |
| 20260509042656 | 9 | 67 | 3.2 | 6.4 | 0.00 | 0.00 | 0.00 | 85 | 1011.8 |
| 20260509042122 | 9 | 47 | 0.0 | 1.6 | 0.00 | 0.00 | 0.00 | 85 | 1011.9 |
| 20260509041637 | 9 | 43 | 0.0 | 0.0 | 0.00 | 0.00 | 0.00 | 85 | 1011.8 |
| 20260509041125 | 9 | 43 | 0.0 | 0.0 | 0.00 | 0.00 | 0.00 | 85 | 1011.8 |
| 20260509040618 | 9 | 40 | 0.0 | 0.0 | 0.00 | 0.00 | 0.00 | 85 | 1011.7 |
| 20260509040131 | 9 | 40 | 0.0 | 0.0 | 0.00 | 0.00 | 0.00 | 85 | 1011.8 |
| 20260509035618 | 9 | 40 | 0.0 | 0.0 | 0.00 | 0.00 | 0.00 | 86 | 1011.7 |
| 20260509035132 | 9 | 40 | 0.0 | 0.0 | 0.00 | 0.00 | 0.00 | 85 | 1011.7 |
| 20260509034621 | 9 | 40 | 0.0 | 0.0 | 0.00 | 0.00 | 0.00 | 85 | 1011.7 |
| 20260509034137 | 9 | 39 | 0.0 | 0.0 | 0.00 | 0.00 | 0.00 | 85 | 1011.6 |
| 20260509033622 | 9 | 313 | 0.0 | 0.0 | 0.00 | 0.00 | 0.00 | 85 | 1011.4 |
| 20260509033153 | 9 | 222 | 0.0 | 0.0 | 0.00 | 0.00 | 0.00 | 85 | 1011.4 |
| 20260509032626 | 9 | 222 | 0.0 | 0.0 | 0.00 | 0.00 | 0.00 | 85 | 1011.3 |
| 20260509032119 | 9 | 222 | 0.0 | 0.0 | 0.00 | 0.00 | 0.00 | 85 | 1011.2 |
| 20260509031633 | 9 | 222 | 0.0 | 0.0 | 0.00 | 0.00 | 0.00 | 85 | 1011.2 |
| 20260509031129 | 9 | 222 | 0.0 | 0.0 | 0.00 | 0.00 | 0.00 | 85 | 1011.2 |
| 20260509030621 | 9 | 222 | 0.0 | 0.0 | 0.00 | 0.00 | 0.00 | 84 | 1011.2 |
| 20260509030136 | 9 | 222 | 0.0 | 0.0 | 0.00 | 0.00 | 0.00 | 84 | 1011.3 |
| 20260509025625 | 9 | 255 | 0.0 | 0.0 | 0.00 | 0.00 | 0.00 | 84 | 1011.2 |
| 20260509025138 | 9 | 255 | 0.0 | 0.0 | 0.00 | 0.00 | 0.00 | 84 | 1011.4 |
| 20260509024646 | 9 | 255 | 0.0 | 0.0 | 0.00 | 0.00 | 0.00 | 84 | 1011.4 |
| 20260509024121 | 9 | 255 | 0.0 | 0.0 | 0.00 | 0.00 | 0.00 | 84 | 1011.3 |
| 20260509023635 | 9 | 255 | 0.0 | 0.0 | 0.00 | 0.00 | 0.00 | 83 | 1011.4 |
| 20260509023121 | 9 | 255 | 0.0 | 0.0 | 0.00 | 0.00 | 0.00 | 83 | 1011.3 |
| 20260509022638 | 9 | 255 | 0.0 | 6.4 | 0.00 | 0.00 | 0.00 | 83 | 1011.3 |
| 20260509022145 | 10 | 274 | 0.0 | 9.7 | 0.00 | 0.00 | 0.00 | 83 | 1011.4 |
| 20260509021618 | 10 | 274 | 1.6 | 4.8 | 0.00 | 0.00 | 0.00 | 83 | 1011.4 |
| 20260509021135 | 10 | 236 | 0.0 | 0.0 | 0.00 | 0.00 | 0.00 | 83 | 1011.3 |
| 20260509020642 | 10 | 236 | 0.0 | 0.0 | 0.00 | 0.00 | 0.00 | 83 | 1011.3 |
| 20260509020135 | 10 | 236 | 0.0 | 0.0 | 0.00 | 0.00 | 0.00 | 83 | 1011.6 |
| 20260509015625 | 10 | 236 | 0.0 | 0.0 | 0.00 | 0.00 | 0.00 | 83 | 1011.7 |
| 20260509015119 | 10 | 236 | 0.0 | 0.0 | 0.00 | 0.00 | 0.00 | 83 | 1011.7 |
| 20260509014634 | 9 | 236 | 0.0 | 0.0 | 0.00 | 0.00 | 0.00 | 82 | 1011.6 |
| 20260509014122 | 9 | 236 | 0.0 | 0.0 | 0.00 | 0.00 | 0.00 | 82 | 1011.7 |
| 20260509013631 | 9 | 236 | 0.0 | 0.0 | 0.00 | 0.00 | 0.00 | 82 | 1011.4 |
| 20260509013117 | 9 | 236 | 0.0 | 0.0 | 0.00 | 0.00 | 0.00 | 82 | 1011.5 |
| 20260509012634 | 9 | 236 | 0.0 | 0.0 | 0.00 | 0.00 | 0.00 | 81 | 1011.5 |
| 20260509012128 | 10 | 236 | 0.0 | 0.0 | 0.00 | 0.00 | 0.00 | 81 | 1011.5 |
| 20260509011624 | 10 | 236 | 0.0 | 0.0 | 0.00 | 0.00 | 0.00 | 81 | 1011.4 |
| 20260509011121 | 10 | 236 | 0.0 | 0.0 | 0.00 | 0.00 | 0.00 | 81 | 1011.3 |
| 20260509010633 | 10 | 236 | 0.0 | 0.0 | 0.00 | 0.00 | 0.00 | 80 | 1011.3 |
| 20260509010139 | 10 | 236 | 0.0 | 0.0 | 0.00 | 0.00 | 0.00 | 78 | 1011.2 |
| 20260509005626 | 10 | 236 | 0.0 | 0.0 | 0.00 | 0.00 | 0.00 | 77 | 1011.1 |
| 20260509005139 | 10 | 236 | 0.0 | 0.0 | 0.00 | 0.00 | 0.00 | 76 | 1011.1 |
| 20260509004634 | 10 | 236 | 0.0 | 0.0 | 0.00 | 0.00 | 0.00 | 75 | 1011.1 |
| 20260509004124 | 11 | 236 | 0.0 | 0.0 | 0.00 | 0.00 | 0.00 | 74 | 1010.9 |
| 20260509003636 | 11 | 236 | 0.0 | 0.0 | 0.00 | 0.00 | 0.00 | 74 | 1010.9 |
| 20260509003124 | 11 | 236 | 0.0 | 0.0 | 0.00 | 0.00 | 0.00 | 72 | 1010.8 |
| 20260509002639 | 12 | 236 | 0.0 | 0.0 | 0.00 | 0.00 | 0.00 | 71 | 1010.7 |
| 20260509002124 | 12 | 236 | 0.0 | 0.0 | 0.00 | 0.00 | 0.00 | 72 | 1010.7 |
| 20260509001638 | 12 | 236 | 0.0 | 0.0 | 0.00 | 0.00 | 0.00 | 72 | 1010.7 |
| 20260509001127 | 12 | 237 | 0.0 | 0.0 | 0.00 | 0.00 | 0.00 | 71 | 1010.8 |
| 20260509000619 | 12 | 237 | 0.0 | 0.0 | 0.00 | 0.00 | 0.00 | 70 | 1010.8 |
| 20260509000135 | 13 | 237 | 0.0 | 0.0 | 0.00 | 0.00 | 0.00 | 70 | 1010.9 |
| 20260508235644 | 13 | 237 | 0.0 | 0.0 | 0.00 | 0.00 | 0.00 | 70 | 1011.0 |
| 20260508235159 | 13 | 237 | 0.0 | 0.0 | 0.00 | 0.00 | 0.00 | 70 | 1010.9 |
| 20260508234624 | 13 | 237 | 0.0 | 0.0 | 0.00 | 0.00 | 0.00 | 69 | 1011.0 |
| 20260508234119 | 13 | 237 | 0.0 | 0.0 | 0.00 | 0.00 | 0.00 | 65 | 1011.0 |
| 20260508233649 | 13 | 237 | 0.0 | 0.0 | 0.00 | 0.00 | 0.00 | 66 | 1011.0 |
| 20260508233121 | 13 | 237 | 0.0 | 0.0 | 0.00 | 0.00 | 0.00 | 64 | 1010.9 |
| 20260508232638 | 13 | 237 | 0.0 | 0.0 | 0.00 | 0.00 | 0.00 | 61 | 1011.0 |
| 20260508232123 | 14 | 237 | 0.0 | 3.2 | 0.00 | 0.00 | 0.00 | 60 | 1010.9 |
| 20260508231635 | 14 | 237 | 0.0 | 4.8 | 0.00 | 0.00 | 0.00 | 61 | 1011.0 |
| 20260508231123 | 14 | 237 | 0.0 | 6.4 | 0.00 | 0.00 | 0.00 | 59 | 1010.9 |
| 20260508230617 | 14 | 237 | 1.6 | 8.0 | 0.00 | 0.00 | 0.00 | 58 | 1010.9 |
| 20260508230131 | 15 | 262 | 1.6 | 12.9 | 0.00 | 0.00 | 0.00 | 58 | 1010.8 |
| 20260508225643 | 15 | 214 | 6.4 | 17.7 | 0.00 | 0.00 | 0.00 | 55 | 1010.8 |
| 20260508225156 | 15 | 230 | 8.0 | 17.7 | 0.00 | 0.00 | 0.00 | 54 | 1010.8 |
| 20260508224622 | 15 | 227 | 4.8 | 14.5 | 0.00 | 0.00 | 0.00 | 54 | 1010.7 |
| 20260508224200 | 15 | 276 | 3.2 | 12.9 | 0.00 | 0.00 | 0.00 | 56 | 1010.8 |
| 20260508223643 | 15 | 245 | 1.6 | 12.9 | 0.00 | 0.00 | 0.00 | 57 | 1010.7 |
| 20260508223137 | 15 | 245 | 6.4 | 14.5 | 0.00 | 0.00 | 0.00 | 56 | 1010.7 |
| 20260508222646 | 15 | 212 | 4.8 | 16.1 | 0.00 | 0.00 | 0.00 | 57 | 1010.7 |
| 20260508222118 | 15 | 241 | 8.0 | 16.1 | 0.00 | 0.00 | 0.00 | 56 | 1010.8 |
| 20260508221648 | 15 | 268 | 1.6 | 20.9 | 0.00 | 0.00 | 0.00 | 56 | 1010.8 |
| 20260508221141 | 15 | 251 | 1.6 | 20.9 | 0.00 | 0.00 | 0.00 | 57 | 1011.0 |
| 20260508220627 | 15 | 170 | 3.2 | 20.9 | 0.00 | 0.00 | 0.00 | 59 | 1011.0 |
| 20260508220141 | 14 | 205 | 4.8 | 22.5 | 0.00 | 0.00 | 0.00 | 60 | 1011.2 |
| 20260508215635 | 14 | 204 | 4.8 | 12.9 | 0.00 | 0.00 | 0.00 | 60 | 1011.2 |
| 20260508215121 | 14 | 225 | 6.4 | 16.1 | 0.00 | 0.00 | 0.00 | 60 | 1011.2 |
| 20260508214636 | 14 | 205 | 8.0 | 17.7 | 0.00 | 0.00 | 0.00 | 60 | 1011.3 |
| 20260508214124 | 14 | 195 | 8.0 | 17.7 | 0.00 | 0.00 | 0.00 | 60 | 1011.3 |
| 20260508213658 | 14 | 186 | 4.8 | 37.0 | 0.00 | 0.00 | 0.00 | 59 | 1011.3 |
| 20260508213124 | 14 | 178 | 19.3 | 37.0 | 0.00 | 0.00 | 0.00 | 58 | 1011.3 |
| 20260508212639 | 14 | 233 | 17.7 | 30.6 | 0.00 | 0.00 | 0.00 | 58 | 1011.3 |
| 20260508212127 | 14 | 250 | 17.7 | 27.4 | 0.00 | 0.00 | 0.00 | 58 | 1011.3 |
| 20260508211621 | 14 | 248 | 16.1 | 33.8 | 0.00 | 0.00 | 0.00 | 58 | 1011.2 |
| 20260508211138 | 15 | 254 | 22.5 | 41.8 | 0.00 | 0.00 | 0.00 | 57 | 1011.3 |
| 20260508210646 | 15 | 214 | 14.5 | 40.2 | 0.00 | 0.00 | 0.00 | 57 | 1011.4 |
| 20260508210119 | 15 | 226 | 27.4 | 40.2 | 0.00 | 0.00 | 0.00 | 56 | 1011.4 |
| 20260508205634 | 15 | 244 | 17.7 | 27.4 | 0.00 | 0.00 | 0.00 | 56 | 1011.3 |
| 20260508205140 | 15 | 226 | 17.7 | 29.0 | 0.00 | 0.00 | 0.00 | 55 | 1011.2 |
| 20260508204642 | 15 | 261 | 16.1 | 30.6 | 0.00 | 0.00 | 0.00 | 55 | 1011.1 |
| 20260508204156 | 15 | 185 | 19.3 | 35.4 | 0.00 | 0.00 | 0.00 | 54 | 1011.0 |
| 20260508203622 | 15 | 216 | 19.3 | 33.8 | 0.00 | 0.00 | 0.00 | 54 | 1011.0 |
| 20260508203137 | 15 | 224 | 14.5 | 33.8 | 0.00 | 0.00 | 0.00 | 56 | 1011.1 |
| 20260508202626 | 15 | 257 | 12.9 | 25.7 | 0.00 | 0.00 | 0.00 | 57 | 1011.0 |
| 20260508202137 | 15 | 239 | 11.3 | 20.9 | 0.00 | 0.00 | 0.00 | 57 | 1011.1 |
| 20260508201624 | 15 | 218 | 12.9 | 20.9 | 0.00 | 0.00 | 0.00 | 57 | 1011.0 |
| 20260508201120 | 15 | 223 | 8.0 | 19.3 | 0.00 | 0.00 | 0.00 | 59 | 1011.1 |
| 20260508200633 | 15 | 210 | 6.4 | 17.7 | 0.00 | 0.00 | 0.00 | 59 | 1011.2 |
| 20260508200121 | 14 | 229 | 11.3 | 22.5 | 0.00 | 0.00 | 0.00 | 61 | 1011.3 |
| 20260508195635 | 14 | 245 | 9.7 | 32.2 | 0.00 | 0.00 | 0.00 | 61 | 1011.4 |
| 20260508195124 | 14 | 230 | 22.5 | 48.3 | 0.00 | 0.00 | 0.00 | 60 | 1011.5 |
| 20260508194617 | 14 | 241 | 20.9 | 48.3 | 0.00 | 0.00 | 0.00 | 59 | 1011.6 |
| 20260508194133 | 14 | 247 | 11.3 | 27.4 | 0.00 | 0.00 | 0.00 | 59 | 1011.7 |
| 20260508193620 | 15 | 234 | 11.3 | 22.5 | 0.00 | 0.00 | 0.00 | 57 | 1011.5 |
| 20260508193135 | 15 | 265 | 8.0 | 24.1 | 0.00 | 0.00 | 0.00 | 56 | 1011.3 |
| 20260508192624 | 15 | 278 | 8.0 | 25.7 | 0.00 | 0.00 | 0.00 | 55 | 1011.3 |
| 20260508192117 | 15 | 265 | 14.5 | 33.8 | 0.00 | 0.00 | 0.00 | 53 | 1011.3 |
| 20260508191632 | 15 | 241 | 16.1 | 33.8 | 0.00 | 0.00 | 0.00 | 51 | 1011.4 |
| 20260508191122 | 16 | 247 | 16.1 | 29.0 | 0.00 | 0.00 | 0.00 | 49 | 1011.2 |
| 20260508190634 | 16 | 230 | 11.3 | 30.6 | 0.00 | 0.00 | 0.00 | 49 | 1011.1 |
| 20260508190122 | 16 | 275 | 17.7 | 30.6 | 0.00 | 0.00 | 0.00 | 47 | 1011.0 |
| 20260508185637 | 16 | 241 | 17.7 | 29.0 | 0.00 | 0.00 | 0.00 | 48 | 1011.1 |
| 20260508185144 | 16 | 173 | 14.5 | 24.1 | 0.00 | 0.00 | 0.00 | 47 | 1011.3 |
| 20260508184635 | 16 | 174 | 11.3 | 24.1 | 0.00 | 0.00 | 0.00 | 49 | 1011.1 |
| 20260508184121 | 16 | 218 | 14.5 | 27.4 | 0.00 | 0.00 | 0.00 | 49 | 1011.3 |
| 20260508183615 | 15 | 230 | 6.4 | 27.4 | 0.00 | 0.00 | 0.00 | 49 | 1011.4 |
| 20260508183128 | 15 | 224 | 12.9 | 35.4 | 0.00 | 0.00 | 0.00 | 48 | 1011.5 |
| 20260508182624 | 15 | 178 | 22.5 | 35.4 | 0.00 | 0.00 | 0.00 | 47 | 1011.5 |
| 20260508182157 | 15 | 245 | 19.3 | 35.4 | 0.00 | 0.00 | 0.00 | 47 | 1011.4 |
| 20260508181624 | 15 | 272 | 12.9 | 40.2 | 0.00 | 0.00 | 0.00 | 47 | 1011.4 |
| 20260508181141 | 16 | 257 | 25.7 | 40.2 | 0.00 | 0.00 | 0.00 | 44 | 1011.6 |
| 20260508180626 | 16 | 234 | 12.9 | 33.8 | 0.00 | 0.00 | 0.00 | 44 | 1011.5 |
| 20260508180139 | 16 | 233 | 19.3 | 33.8 | 0.00 | 0.00 | 0.00 | 43 | 1011.4 |
| 20260508175633 | 17 | 197 | 12.9 | 25.7 | 0.00 | 0.00 | 0.00 | 42 | 1011.4 |
| 20260508175120 | 17 | 245 | 3.2 | 29.0 | 0.00 | 0.00 | 0.00 | 44 | 1011.3 |
| 20260508174635 | 17 | 275 | 19.3 | 40.2 | 0.00 | 0.00 | 0.00 | 45 | 1011.5 |
| 20260508174145 | 17 | 257 | 25.7 | 40.2 | 0.00 | 0.00 | 0.00 | 41 | 1011.7 |
| 20260508173657 | 17 | 218 | 12.9 | 25.7 | 0.00 | 0.00 | 0.00 | 45 | 1011.8 |
| 20260508173122 | 16 | 206 | 14.5 | 32.2 | 0.00 | 0.00 | 0.00 | 44 | 1011.6 |
| 20260508172658 | 16 | 232 | 14.5 | 32.2 | 0.00 | 0.00 | 0.00 | 41 | 1011.7 |
| 20260508172123 | 17 | 227 | 17.7 | 29.0 | 0.00 | 0.00 | 0.00 | 44 | 1011.9 |
| 20260508171618 | 16 | 226 | 16.1 | 25.7 | 0.00 | 0.00 | 0.00 | 47 | 1011.8 |
| 20260508171131 | 16 | 243 | 17.7 | 33.8 | 0.00 | 0.00 | 0.00 | 45 | 1011.9 |
| 20260508170625 | 16 | 278 | 16.1 | 33.8 | 0.00 | 0.00 | 0.00 | 45 | 1011.8 |
| 20260508170120 | 16 | 247 | 20.9 | 40.2 | 0.00 | 0.00 | 0.00 | 46 | 1012.0 |
| 20260508165635 | 16 | 244 | 11.3 | 25.7 | 0.00 | 0.00 | 0.00 | 46 | 1012.0 |
| 20260508165120 | 15 | 270 | 12.9 | 29.0 | 0.00 | 0.00 | 0.00 | 45 | 1012.0 |
| 20260508164634 | 15 | 234 | 11.3 | 29.0 | 0.00 | 0.00 | 0.00 | 47 | 1012.1 |
| 20260508164130 | 16 | 232 | 4.8 | 27.4 | 0.00 | 0.00 | 0.00 | 45 | 1012.2 |
| 20260508163624 | 16 | 237 | 17.7 | 30.6 | 0.00 | 0.00 | 0.00 | 48 | 1012.1 |
| 20260508163117 | 15 | 266 | 19.3 | 32.2 | 0.00 | 0.00 | 0.00 | 47 | 1012.2 |
| 20260508162633 | 15 | 220 | 6.4 | 32.2 | 0.00 | 0.00 | 0.00 | 48 | 1012.3 |
| 20260508162140 | 15 | 241 | 11.3 | 29.0 | 0.00 | 0.00 | 0.00 | 49 | 1012.4 |
| 20260508161626 | 15 | 219 | 14.5 | 29.0 | 0.00 | 0.00 | 0.00 | 48 | 1012.4 |
| 20260508161120 | 15 | 306 | 9.7 | 25.7 | 0.00 | 0.00 | 0.00 | 50 | 1012.5 |
| 20260508160653 | 15 | 267 | 9.7 | 20.9 | 0.00 | 0.00 | 0.00 | 54 | 1012.7 |
| 20260508160120 | 14 | 168 | 11.3 | 17.7 | 0.00 | 0.00 | 0.00 | 51 | 1012.6 |
| 20260508155636 | 14 | 283 | 9.7 | 27.4 | 0.00 | 0.00 | 0.00 | 51 | 1012.7 |
| 20260508155144 | 15 | 309 | 19.3 | 27.4 | 0.00 | 0.00 | 0.00 | 50 | 1012.8 |
| 20260508154657 | 14 | 271 | 8.0 | 30.6 | 0.00 | 0.00 | 0.00 | 55 | 1012.8 |
| 20260508154126 | 14 | 262 | 16.1 | 29.0 | 0.00 | 0.00 | 0.00 | 53 | 1012.8 |
| 20260508153619 | 14 | 286 | 8.0 | 27.4 | 0.00 | 0.00 | 0.00 | 51 | 1012.9 |
| 20260508153134 | 13 | 285 | 11.3 | 27.4 | 0.00 | 0.00 | 0.00 | 56 | 1013.0 |
| 20260508152621 | 13 | 237 | 8.0 | 29.0 | 0.00 | 0.00 | 0.00 | 50 | 1012.9 |
| 20260508152135 | 14 | 284 | 19.3 | 29.0 | 0.00 | 0.00 | 0.00 | 50 | 1013.0 |
| 20260508151622 | 14 | 215 | 9.7 | 35.4 | 0.00 | 0.00 | 0.00 | 51 | 1012.8 |
| 20260508151118 | 14 | 266 | 20.9 | 40.2 | 0.00 | 0.00 | 0.00 | 50 | 1012.9 |
| 20260508150647 | 14 | 219 | 20.9 | 38.6 | 0.00 | 0.00 | 0.00 | 49 | 1012.9 |
| 20260508150121 | 14 | 230 | 22.5 | 38.6 | 0.00 | 0.00 | 0.00 | 49 | 1012.8 |
| 20260508145635 | 13 | 190 | 19.3 | 33.8 | 0.00 | 0.00 | 0.00 | 50 | 1012.8 |
| 20260508145128 | 13 | 232 | 19.3 | 30.6 | 0.00 | 0.00 | 0.00 | 51 | 1012.8 |
| 20260508144622 | 13 | 270 | 17.7 | 30.6 | 0.00 | 0.00 | 0.00 | 53 | 1012.9 |
| 20260508144138 | 12 | 195 | 12.9 | 30.6 | 0.00 | 0.00 | 0.00 | 54 | 1013.0 |
| 20260508143625 | 13 | 222 | 17.7 | 40.2 | 0.00 | 0.00 | 0.00 | 51 | 1013.1 |
| 20260508143119 | 13 | 229 | 25.7 | 40.2 | 0.00 | 0.00 | 0.00 | 49 | 1013.1 |
| 20260508142634 | 13 | 251 | 17.7 | 37.0 | 0.00 | 0.00 | 0.00 | 50 | 1013.0 |
| 20260508142120 | 13 | 216 | 22.5 | 37.0 | 0.00 | 0.00 | 0.00 | 49 | 1012.9 |
| 20260508141634 | 13 | 235 | 12.9 | 33.8 | 0.00 | 0.00 | 0.00 | 51 | 1012.9 |
| 20260508141119 | 12 | 274 | 17.7 | 30.6 | 0.00 | 0.00 | 0.00 | 51 | 1012.9 |
| 20260508140635 | 12 | 237 | 20.9 | 30.6 | 0.00 | 0.00 | 0.00 | 52 | 1013.1 |
| 20260508140142 | 12 | 222 | 12.9 | 29.0 | 0.00 | 0.00 | 0.00 | 56 | 1013.2 |
| 20260508135658 | 12 | 179 | 9.7 | 25.7 | 0.00 | 0.00 | 0.00 | 56 | 1013.0 |